Location: Heisede
(52.2582°N, 9.8523°E)
Time: 04:44:56
(UTC+00:00)

Meteor 1-23 Rocket - Visible Passes

Search period start: 21 April 2026 00:00
Search period end: 01 May 2026 00:00
Orbit: 840 x 882 km, 81.3° (Epoch: 20 April)

Date Brightness Start Highest point End Pass type
(mag) Time Alt. Az. Time Alt. Az. Time Alt. Az.
21 Apr 7.2 03:15:24 10° ESE 03:18:39 16° E 03:21:55 10° NE visible
22 Apr 7.2 03:06:38 10° ESE 03:09:50 15° E 03:13:01 10° NE visible
23 Apr 7.1 02:57:53 10° ESE 03:01:00 15° E 03:04:07 10° NE visible
24 Apr 7.1 02:49:08 10° ESE 02:52:10 15° E 02:55:13 10° NE visible
25 Apr 7.1 02:40:23 10° ESE 02:43:21 14° E 02:46:18 10° NE visible
26 Apr 7.1 02:31:39 10° ESE 02:34:31 14° E 02:37:23 10° NE visible
27 Apr 7.1 02:22:54 10° ESE 02:25:41 14° ENE 02:28:28 10° NE visible
28 Apr 7.1 02:14:10 10° ESE 02:16:51 14° ENE 02:19:33 10° NE visible
29 Apr 7.0 02:05:26 10° ESE 02:08:02 13° ENE 02:10:38 10° NE visible
30 Apr 7.0 01:56:42 10° ESE 01:59:12 13° ENE 02:01:42 10° NE visible
